Wind_Speed
14 13 8 1 1 0 2 2 2 5 3 0 2 5 8 5 2 4 24 17 22 24 24 26 26 25 24 24 24 24 23 22 21 20 19 17 15 14 13 11 12 11 9 9 8 9 10 9 9
16 9 1 1 3 3 3 2 3 4 8 12 10 8 7 5 5 13 15 24 26 25 24 26 26 25 23 23 23 23 20 20 19 19 17 15 13 12 10 10 10 9 8 8 7 7 8 8 7
12 1 2 2 2 2 3 3 7 8 9 4 5 7 4 4 11 14 20 30 28 24 24 24 24 25 22 21 21 22 19 18 18 16 15 14 12 10 9 9 8 9 8 7 7 6 7 7 7
7 1 1 2 4 5 4 4 8 11 5 7 13 8 5 14 10 12 32 31 29 26 23 22 23 23 22 20 19 19 18 17 16 15 14 12 10 9 8 8 7 8 6 7 7 6 6 7 7
2 2 3 4 7 4 1 6 7 6 5 11 5 6 8 5 16 32 30 29 29 25 23 22 23 23 21 19 18 17 17 15 14 14 13 11 9 7 6 6 5 5 6 5 7 7 7 8 7
3 3 1 3 6 6 5 8 8 10 12 14 12 9 3 21 29 26 28 29 29 27 23 23 22 22 21 19 17 16 15 14 13 13 12 10 8 7 6 5 4 3 4 5 6 7 7 7 8
4 5 5 3 6 4 5 7 8 13 12 7 9 5 7 16 24 28 26 29 28 26 25 24 23 21 20 19 17 16 15 14 13 12 11 9 8 7 6 5 4 3 3 4 4 5 7 8 6
4 2 2 6 5 3 10 10 12 11 6 13 12 7 11 21 27 27 27 28 28 27 25 25 25 23 22 20 18 16 15 14 14 12 11 9 7 6 5 3 3 3 3 4 4 5 7 5 3
2 1 4 6 10 5 12 7 10 3 13 3 5 8 21 31 31 26 23 23 26 27 27 26 26 24 23 21 19 17 15 16 14 12 11 8 7 5 4 4 4 2 3 4 7 4 2 4 1
4 4 6 5 8 15 16 15 15 6 13 1 9 16 31 32 30 26 23 22 25 26 29 28 28 26 24 23 21 20 18 17 15 13 11 9 6 4 5 3 2 3 1 1 3 1 1 3 2
5 6 4 5 7 19 22 13 7 15 10 7 20 23 24 27 26 25 24 26 30 32 31 31 30 28 27 25 24 22 20 18 16 14 12 10 8 5 5 5 5 4 3 2 1 2 2 2 1
4 14 13 5 5 18 19 14 5 18 10 17 24 29 25 21 20 24 24 25 27 30 35 33 31 30 29 26 25 23 22 19 17 16 14 11 9 6 6 7 5 6 3 3 2 1 1 1 1
9 20 7 4 4 17 16 19 13 21 8 17 20 23 24 21 25 28 29 29 28 30 34 36 34 32 30 28 26 25 23 21 18 17 16 14 11 7 9 11 8 4 5 4 4 1 4 2 1
6 16 17 9 10 18 14 13 10 16 19 20 23 24 22 22 27 27 25 26 27 30 33 36 36 34 31 31 29 25 21 20 18 17 16 14 12 9 9 8 9 6 4 3 3 2 3 2 3
7 8 6 8 6 11 14 10 19 15 22 22 23 22 22 22 28 27 31 30 31 34 35 34 37 35 33 32 29 26 23 21 21 21 17 16 15 13 9 7 7 5 5 6 4 2 3 5 1
3 1 2 7 8 7 17 20 16 22 24 22 22 21 21 22 27 31 33 34 33 31 34 36 36 35 34 33 28 24 21 22 23 22 20 21 17 15 11 10 10 8 6 8 6 3 3 3 2
4 4 6 8 9 6 10 5 12 22 22 22 21 21 20 19 22 31 33 33 33 36 35 37 37 35 35 33 30 25 19 14 15 16 18 20 22 18 13 9 8 8 7 7 5 5 5 4 4
5 4 5 6 3 8 7 6 19 21 22 23 22 21 20 20 25 34 33 34 33 34 38 39 40 38 36 35 32 28 24 18 17 18 17 20 23 21 15 11 9 9 8 9 6 7 4 2 2
4 3 5 3 1 2 4 7 21 22 18 21 20 20 21 22 24 34 33 34 32 32 36 38 37 39 39 36 34 32 30 25 22 18 19 18 23 22 18 14 12 11 10 9 8 8 7 6 3
6 7 13 3 7 4 7 10 19 23 27 27 25 22 22 21 16 24 31 34 34 39 40 39 41 42 43 40 37 34 34 31 27 23 19 19 19 23 22 17 14 14 12 10 12 11 8 8 5
6 10 11 9 2 3 5 2 12 20 13 14 18 22 21 22 23 18 27 35 35 36 41 43 44 44 44 43 39 34 31 30 26 25 21 19 19 20 23 18 16 15 16 14 14 12 9 8 5
9 7 7 5 4 3 6 4 7 17 18 16 16 18 20 21 20 18 21 32 38 39 40 42 43 44 44 45 40 35 29 26 28 27 24 23 21 22 23 20 19 16 16 17 18 12 10 8 7
10 6 6 3 4 1 5 0 6 17 19 21 19 21 22 22 21 22 22 34 42 39 39 41 46 45 43 47 41 38 31 33 29 28 25 25 22 24 25 23 21 19 17 17 17 14 12 11 9
4 3 4 1 3 6 16 8 7 12 25 24 21 23 25 23 23 23 34 34 33 36 36 39 41 44 45 48 47 42 37 35 34 28 26 26 24 25 26 25 23 22 18 18 18 16 14 13 10
5 7 3 3 4 10 9 6 14 9 21 26 25 26 27 25 24 23 23 21 30 34 37 37 39 39 43 46 45 45 42 42 39 35 28 25 23 27 29 27 26 26 21 20 20 18 16 14 13
8 13 6 7 3 6 4 9 8 15 11 19 25 26 25 24 24 25 24 27 33 38 39 39 39 40 40 44 45 46 44 43 41 38 32 32 26 27 31 30 29 28 24 22 21 20 18 16 16
6 11 12 3 2 3 5 8 5 9 11 10 14 15 22 24 25 26 26 29 35 36 41 43 41 42 41 44 44 42 44 41 38 39 33 34 32 31 32 34 31 30 28 25 23 22 21 17 16
14 8 4 2 11 12 4 7 7 11 17 11 13 13 20 23 23 24 23 26 34 36 39 40 42 44 45 46 44 43 45 44 40 40 37 35 32 33 34 36 33 32 31 28 26 25 22 20 18
5 8 3 6 6 7 3 11 8 10 13 12 15 17 21 22 24 24 22 28 36 38 36 41 40 40 40 41 41 39 39 38 39 43 40 38 33 32 35 37 35 35 34 31 29 28 26 23 20
15 11 9 5 12 8 13 11 3 17 14 10 11 13 18 22 22 20 21 22 28 32 34 38 39 39 43 43 42 42 41 38 39 43 44 42 40 36 36 36 36 37 37 35 33 31 30 28 25
Wind_Direction
150 155 144 209 351 95 314 270 135 111 87 279 80 115 108 44 56 143 151 145 143 139 144 145 143 137 135 131 131 129 127 126 125 124 120 117 114 107 104 101 95 92 87 82 79 84 94 104 124
143 143 289 309 66 31 296 263 151 78 132 117 95 106 51 72 71 122 133 158 147 143 145 143 141 139 136 134 132 131 127 126 127 123 119 114 112 108 113 107 101 96 88 86 83 83 94 102 112
133 281 16 42 42 212 239 198 100 122 146 94 108 73 70 92 112 134 153 155 149 146 145 142 142 144 139 137 136 133 129 128 128 125 123 120 118 118 118 111 102 91 85 77 82 88 90 92 97
167 36 46 47 310 270 265 148 127 143 105 66 107 74 90 124 132 149 150 155 153 149 146 149 146 148 145 143 139 136 136 131 132 131 128 127 123 124 126 118 104 93 83 66 77 79 79 81 92
138 31 343 343 296 262 238 140 132 130 88 118 94 95 100 119 136 143 154 159 157 154 152 154 154 154 152 151 146 145 141 141 139 134 134 132 130 130 123 114 102 87 81 70 73 78 78 78 87
77 73 321 281 284 293 130 159 147 101 103 105 103 103 67 132 136 149 154 163 162 159 159 161 160 159 160 158 155 155 154 151 145 144 141 143 143 133 121 113 106 91 70 74 75 84 90 93 98
122 137 193 224 277 255 153 176 150 135 136 121 139 88 123 142 149 154 164 163 164 165 163 166 165 166 166 167 164 165 162 161 156 153 151 160 146 143 128 104 95 101 96 93 94 103 98 96 101
104 104 231 179 245 270 149 175 160 148 130 124 144 156 164 168 161 161 162 166 170 171 171 171 170 173 175 175 174 174 172 170 167 163 167 166 154 151 134 114 79 78 135 126 115 99 102 102 98
124 115 219 206 183 174 155 155 165 124 139 172 176 144 156 159 157 153 154 161 172 178 179 177 177 178 181 182 182 183 184 180 178 177 182 177 184 174 153 129 96 93 134 136 124 105 90 144 131
161 195 237 191 151 166 178 170 168 132 158 152 103 122 150 154 157 158 161 169 175 180 184 182 181 182 186 188 187 192 192 190 189 187 189 192 186 190 199 165 130 152 136 103 148 133 76 126 143
199 226 261 201 183 164 174 189 177 144 186 188 151 147 159 163 165 165 172 176 180 184 184 188 187 189 190 192 192 197 197 196 197 196 197 199 210 212 202 206 190 178 191 203 217 123 112 116 42
249 245 244 342 156 166 173 163 170 174 190 168 158 160 162 170 173 174 178 180 184 185 189 191 192 192 195 195 198 199 201 202 205 205 202 203 206 221 222 213 204 194 202 218 190 42 2 52 151
237 257 275 190 145 178 158 180 183 199 151 152 152 162 169 172 177 183 185 185 186 189 192 195 196 197 197 199 202 204 207 210 212 213 213 214 220 229 234 217 200 192 233 206 202 345 302 289 100
229 244 258 274 168 173 171 193 160 209 154 158 162 170 177 178 184 185 184 188 191 192 196 197 199 201 200 202 206 209 212 215 213 214 217 223 226 234 234 211 203 201 209 179 191 337 330 222 241
247 265 297 264 247 169 194 213 199 178 163 167 171 173 179 189 186 188 190 190 192 196 195 199 200 202 203 207 210 213 217 221 221 224 222 230 229 224 212 200 205 205 195 202 203 272 234 289 203
260 84 281 277 180 228 179 212 200 166 166 176 177 174 183 193 188 193 195 194 195 194 196 199 200 202 204 207 207 210 219 230 234 236 237 231 228 219 227 229 237 232 219 213 199 231 225 177 182
343 221 222 300 179 171 181 197 167 169 174 177 181 182 188 191 197 197 199 195 193 197 198 202 200 203 205 208 212 213 215 220 209 211 217 217 222 224 225 235 233 214 229 205 215 240 221 234 246
197 202 244 234 277 183 195 184 162 172 180 182 182 186 189 196 200 200 199 197 195 196 201 203 201 205 206 212 216 218 214 210 203 206 213 211 216 218 225 229 216 214 199 212 227 212 200 226 257
191 231 248 133 202 74 263 177 176 177 185 187 189 185 193 204 201 198 198 196 195 197 199 202 201 206 208 209 212 213 214 213 212 216 218 217 216 219 223 222 220 221 219 229 221 207 220 228 216
192 227 259 300 213 194 222 204 187 179 195 192 188 190 194 197 187 200 199 198 195 197 201 202 204 206 208 210 212 210 218 225 226 224 220 222 228 225 220 222 225 220 222 226 219 215 236 209 215
199 203 242 241 15 220 119 2 179 204 219 199 204 200 200 196 192 183 195 201 201 199 198 201 204 207 208 207 209 214 225 227 226 222 222 220 227 232 224 225 225 224 226 226 212 217 238 198 202
238 195 247 256 56 239 126 240 194 200 212 210 204 206 207 206 207 199 194 196 201 203 201 201 202 204 207 206 208 208 212 214 225 225 223 226 233 236 222 225 225 226 224 221 212 218 219 202 193
242 185 197 201 205 167 223 152 247 176 209 216 207 208 210 209 204 205 201 203 203 199 197 198 203 204 204 207 208 210 210 219 223 225 226 233 242 237 221 222 224 222 222 223 213 213 217 208 200
179 305 28 36 144 239 247 172 245 194 203 211 212 210 209 206 209 210 213 204 204 201 197 196 198 204 204 207 208 211 210 214 220 226 228 231 238 227 217 217 222 223 225 216 216 220 216 215 209
135 110 265 276 199 233 221 194 230 204 208 210 205 211 210 205 206 210 211 204 200 199 197 196 197 200 202 205 206 211 213 215 218 222 224 222 229 221 214 216 221 219 220 215 214 218 217 213 211
194 188 161 199 208 234 156 231 233 216 226 215 217 212 209 204 204 208 208 205 201 197 198 195 195 199 199 203 207 211 214 215 217 221 225 228 230 227 218 216 220 219 216 212 215 221 221 224 221
193 198 194 141 183 10 226 275 303 211 234 237 214 203 208 206 201 207 209 207 203 199 198 197 197 200 199 203 207 209 213 213 215 222 225 227 232 235 225 218 220 220 216 217 218 221 224 226 225
190 171 162 358 222 239 252 248 218 193 216 225 231 202 212 209 204 209 208 206 204 204 202 200 200 198 199 202 205 207 213 217 217 222 225 225 231 234 229 219 220 222 218 220 220 222 223 225 225
181 202 201 164 162 216 215 252 183 205 211 212 218 210 210 205 205 206 210 205 204 201 196 199 199 200 201 200 203 206 210 213 215 223 226 224 226 228 225 220 220 220 219 220 220 225 225 226 225
206 199 162 163 221 244 234 233 333 192 203 206 218 211 219 215 215 204 205 205 201 199 194 195 198 198 202 201 200 205 209 210 212 222 226 225 224 225 223 221 220 219 220 222 223 225 226 228 227
Height
769 773 774 775 790 786 793 778 759 768 772 764 762 768 780 782 786 806 795 799 802 804 807 809 813 814 816 818 820 820 822 823 824 825 826 827 829 831 833 833 833 833 833 832 832 832 832 834 834
773 776 775 776 794 804 792 763 767 765 764 761 764 772 779 788 784 791 795 799 803 805 809 811 814 817 819 821 823 824 825 826 828 828 829 830 832 833 834 834 834 835 834 834 833 833 833 834 835
776 777 781 787 796 802 791 760 763 764 761 762 771 770 779 789 788 792 794 799 804 807 810 812 816 818 821 824 826 826 828 828 829 830 831 832 834 835 835 836 836 835 834 834 833 833 834 835 835
774 777 780 792 795 777 768 760 758 763 761 761 767 784 781 785 789 791 797 801 805 808 812 815 818 820 822 825 827 828 829 829 831 832 832 834 835 836 836 837 836 835 835 835 834 835 835 836 837
770 776 792 797 786 768 756 755 759 765 765 767 766 787 788 790 790 794 799 803 806 810 814 817 820 821 824 826 828 830 830 831 832 834 834 835 837 838 838 838 837 837 837 836 836 836 837 838 837
781 787 806 808 785 767 756 756 758 765 770 772 778 782 793 791 793 797 801 805 808 811 815 818 821 822 824 827 829 830 831 832 834 835 835 837 838 839 839 838 838 838 837 837 838 838 838 838 838
780 796 799 796 785 770 762 756 763 767 771 775 771 789 794 795 796 799 803 807 810 813 816 818 821 823 826 828 830 831 832 833 835 835 837 837 840 840 840 839 839 838 838 838 838 838 840 840 839
778 787 793 787 786 777 755 759 758 763 769 765 771 790 795 791 796 801 804 808 812 815 817 818 821 824 826 828 830 831 833 835 835 836 837 839 840 840 840 840 840 839 839 839 839 839 841 842 840
771 794 794 777 776 770 755 763 757 756 765 765 766 771 777 788 795 801 806 810 813 815 816 818 821 824 826 828 829 832 833 834 836 836 838 839 840 841 841 841 842 840 839 841 840 841 841 842 841
779 795 768 749 748 758 756 758 759 765 770 770 770 771 781 788 794 798 803 807 810 812 815 818 820 823 825 828 829 831 832 834 835 837 838 839 841 841 841 842 843 842 841 841 841 841 841 842 841
766 775 745 744 739 738 750 759 753 764 776 764 770 774 780 786 793 796 801 804 805 809 813 816 819 822 825 826 828 829 831 833 835 837 838 840 841 841 841 842 843 842 843 842 841 841 842 842 841
768 742 742 736 736 740 747 750 758 758 752 751 756 762 773 782 788 793 798 802 805 808 810 814 817 820 823 825 826 828 830 832 834 836 838 840 841 840 840 841 842 842 842 842 842 842 842 842 842
758 735 734 735 736 736 739 750 751 755 748 755 763 770 774 778 784 790 794 798 802 805 808 810 814 818 820 823 825 827 829 831 833 835 837 839 839 840 840 840 842 842 842 842 842 841 841 842 842
737 735 734 729 739 736 748 750 751 753 750 757 762 768 773 776 780 787 793 797 799 802 805 808 812 815 818 821 824 826 828 830 832 834 836 838 839 840 839 839 841 842 841 841 841 841 841 841 841
736 746 737 733 732 741 741 760 754 742 749 757 759 765 771 774 779 783 786 791 794 797 802 806 808 812 816 819 822 824 826 828 830 831 835 836 838 839 839 839 840 841 840 841 841 842 841 841 840
746 747 763 731 735 730 736 767 745 740 749 758 761 762 768 771 774 779 782 785 790 796 799 803 806 809 813 816 819 822 824 826 827 829 832 835 837 839 838 839 838 839 840 840 840 841 841 840 840
765 776 765 751 727 730 738 756 739 736 745 755 757 759 763 769 774 775 779 782 787 791 796 800 804 806 810 814 817 820 823 823 824 827 829 831 834 836 837 837 837 838 838 839 840 840 840 840 840
774 770 759 757 733 734 743 746 737 738 744 748 751 755 760 764 763 768 773 778 783 788 792 796 799 802 807 811 814 818 821 822 823 825 827 829 831 833 835 835 836 837 838 839 839 840 841 840 841
748 753 759 746 726 734 744 745 736 735 745 749 749 751 756 757 755 763 768 773 779 785 788 792 796 798 802 807 811 815 816 818 820 822 825 827 829 831 832 834 835 836 836 837 838 839 839 840 840
750 757 755 741 731 736 740 747 737 735 733 730 737 744 746 750 757 760 764 768 771 775 780 786 789 792 796 801 805 810 812 814 817 820 822 825 827 829 830 832 834 835 836 836 837 837 838 839 840
748 755 748 750 738 729 743 754 750 737 737 738 737 733 736 740 744 751 756 760 764 767 770 775 780 786 790 795 801 805 808 810 812 815 819 821 824 826 828 830 832 833 834 834 836 836 837 838 839
758 731 736 739 750 771 735 787 758 743 742 738 736 736 736 736 737 741 747 749 753 757 764 768 774 779 785 789 794 798 800 803 807 811 815 818 820 822 825 827 829 830 831 832 834 836 836 837 839
733 723 732 735 749 754 750 771 755 737 748 737 729 727 727 728 730 734 736 741 742 750 756 761 767 773 778 783 788 793 795 798 803 807 811 814 816 818 821 824 826 827 828 830 833 834 835 836 838
714 725 737 740 759 780 744 762 747 742 727 723 718 715 715 719 722 724 726 731 740 746 751 755 761 765 771 776 780 784 789 793 798 802 805 808 810 813 817 820 822 824 826 829 831 833 834 835 836
720 750 785 784 783 767 738 758 729 714 704 701 704 701 701 705 712 716 720 727 732 739 743 748 753 759 764 769 774 778 782 787 792 797 801 803 805 808 812 816 818 820 823 826 829 831 832 833 835
727 731 776 787 782 761 740 750 714 689 685 682 680 681 688 694 698 704 708 713 718 725 733 739 744 750 757 761 766 771 776 780 786 791 795 798 800 803 807 810 813 817 820 823 826 827 830 831 832
718 730 717 751 754 769 746 718 696 684 686 683 683 684 684 684 687 691 695 703 708 715 721 727 734 741 747 753 759 765 770 775 779 784 789 792 796 799 802 805 808 812 816 819 821 824 827 829 831
691 703 733 764 764 767 746 728 716 696 686 685 678 680 674 673 677 679 685 689 699 707 713 721 727 731 735 743 751 757 762 768 773 779 782 785 789 793 796 800 804 808 813 815 818 821 823 826 827
698 705 710 717 740 747 758 715 683 683 675 678 671 664 661 662 663 667 673 681 687 694 704 710 719 726 732 737 744 750 756 762 768 772 775 778 783 787 791 795 800 804 808 811 814 816 820 822 824
668 685 706 729 729 726 706 708 656 655 661 663 662 658 653 650 652 658 664 671 679 687 695 701 709 717 722 727 734 741 747 754 760 764 768 772 776 781 785 790 794 798 802 805 808 811 814 817 819